Weather History for Cedar City, UT

Change the Weather History Date:

Tuesday, October 16, 2012

  Actual Average Record
Temperature  
Mean Temperature 56 °F 50 °F  
Max Temperature 75 °F 66 °F 82 °F (1991)
Min Temperature 37 °F 33 °F 20 °F (2013)
Degree Days  
Heating Degree Days 9 15  
Month to date heating degree days 147 201  
Since 1 July heating degree days 219 344  
Cooling Degree Days 0 0  
Month to date cooling degree days 0 0  
Year to date cooling degree days 715 588  
Growing Degree Days 6 (Base 50)    
Moisture  
Dew Point 37 °F    
Average Humidity 54    
Maximum Humidity 85    
Minimum Humidity 23    
Precipitation  
Precipitation 0.00 in 0.05 in 0.75 in (1998)
Month to date precipitation 0.97 0.66  
Year to date precipitation 10.83 8.86  
Sea Level Pressure  
Sea Level Pressure 29.90 in    
Wind  
Wind Speed 4 mph (SSW)    
Max Wind Speed 15 mph    
Max Gust Speed 20 mph    
Visibility 10 miles    
Events      
T = Trace of Precipitation, MM = Missing Value Source: NWS Daily Summary

Daily Weather History Graph

Daily Weather History Graph

Search for Another Location

Airport:

Trip Planner

Search our weather history database for the weather conditions in past years. The results will help you decide how hot, cold, wet, or windy it might be!

Date:

Astronomy

Oct. 16, 2012 Rise Set
Actual Time 7:42 AM MDT 6:52 PM MDT
Civil Twilight 7:15 AM MDT 7:19 PM MDT
Nautical Twilight 6:45 AM MDT 7:49 PM MDT
Astronomical Twilight 6:14 AM MDT 8:20 PM MDT
Moon 9:07 AM MDT (10/16) 7:43 PM MDT (10/16)
Length of Visible Light 12h 03m
Length of Day
11h 10m
New Moon, 2% of the Moon is Illuminated
Oct 16
New Moon
Oct 21
First Quarter
Oct 29
Full
Nov 6
Last Quarter
Nov 13
New

Hourly Weather History & Observations

Time (MDT) Temp. Windchill Dew Point Humidity Pressure Visibility Wind Dir Wind Speed Gust Speed Precip Events Conditions
12:53 AM 51.1 °F - 33.1 °F 50% 29.96 in 10.0 mi SE 10.4 mph - N/A   Clear
1:53 AM 50.0 °F - 34.0 °F 54% 29.95 in 10.0 mi SE 5.8 mph - N/A   Clear
2:53 AM 44.1 °F 42.5 °F 35.1 °F 71% 29.97 in 10.0 mi NNE 3.5 mph - N/A   Clear
3:53 AM 44.1 °F 40.8 °F 34.0 °F 68% 29.96 in 10.0 mi NNE 5.8 mph - N/A   Clear
4:53 AM 39.9 °F 37.8 °F 33.1 °F 77% 29.96 in 10.0 mi WSW 3.5 mph - N/A   Clear
5:53 AM 41.0 °F 39.0 °F 34.0 °F 76% 29.97 in 10.0 mi North 3.5 mph - N/A   Clear
6:53 AM 37.0 °F 32.4 °F 33.1 °F 86% 29.99 in 10.0 mi South 5.8 mph - N/A   Clear
7:53 AM 37.9 °F 35.5 °F 33.1 °F 83% 30.00 in 10.0 mi SW 3.5 mph - N/A   Clear
8:53 AM 46.0 °F - 36.0 °F 68% 30.00 in 10.0 mi Calm Calm - N/A   Clear
9:53 AM 54.0 °F - 41.0 °F 62% 29.98 in 10.0 mi NNW 4.6 mph - N/A   Clear
10:53 AM 60.1 °F - 39.0 °F 46% 29.95 in 10.0 mi Calm Calm - N/A   Clear
11:53 AM 68.0 °F - 36.0 °F 31% 29.92 in 10.0 mi Calm Calm - N/A   Clear
12:53 PM 72.0 °F - 35.1 °F 26% 29.88 in 10.0 mi WSW 5.8 mph - N/A   Clear
1:53 PM 75.0 °F - 35.1 °F 23% 29.83 in 10.0 mi SSW 10.4 mph - N/A   Clear
2:53 PM 73.9 °F - 35.1 °F 24% 29.81 in 10.0 mi SSW 9.2 mph - N/A   Clear
3:53 PM 73.9 °F - 37.9 °F 27% 29.79 in 10.0 mi SSW 13.8 mph 19.6 mph N/A   Clear
4:53 PM 72.0 °F - 39.0 °F 30% 29.79 in 10.0 mi SSW 13.8 mph 21.9 mph N/A   Clear
5:53 PM 69.1 °F - 41.0 °F 36% 29.80 in 10.0 mi SSW 10.4 mph - N/A   Clear
6:53 PM 64.0 °F - 41.0 °F 43% 29.83 in 10.0 mi SSW 9.2 mph - N/A   Clear
7:53 PM 60.1 °F - 39.9 °F 47% 29.86 in 10.0 mi SSW 6.9 mph - N/A   Clear
8:53 PM 62.1 °F - 37.0 °F 39% 29.84 in 10.0 mi South 6.9 mph - N/A   Clear
9:53 PM 57.9 °F - 37.9 °F 47% 29.83 in 10.0 mi South 6.9 mph - N/A   Clear
10:53 PM 57.9 °F - 37.9 °F 47% 29.86 in 10.0 mi North 5.8 mph - N/A   Clear
11:53 PM 55.9 °F - 39.0 °F 53% 29.86 in 10.0 mi Calm Calm - N/A   Clear